Time,TemperatureF,DewpointF,PressureIn,WindDirection,WindDirectionDegrees,WindSpeedMPH,WindSpeedGustMPH,Humidity,HourlyPrecipIn,Conditions,Clouds,dailyrainin,SoftwareType,DateUTC
2013-04-22 00:00:00,56.6,54.0,30.00,ESE,117,3.0,6.0,89,0.00,,,0.00,weatherlink.com 1.10,2013-04-22 07:00:00,
2013-04-22 00:06:00,56.7,53.5,30.00,ESE,119,3.0,5.0,89,0.00,,---,0.00,VWS V14.00,2013-04-22 07:06:00,
2013-04-22 00:18:00,56.5,53.0,30.00,ESE,115,4.0,5.0,89,0.00,,,0.00,weatherlink.com 1.10,2013-04-22 07:18:00,
2013-04-22 00:30:00,56.4,53.5,30.00,SSE,161,0.0,7.0,90,0.00,,---,0.00,VWS V14.00,2013-04-22 07:30:00,
2013-04-22 00:35:00,56.4,54.0,30.00,SSE,162,1.0,7.0,90,0.00,,,0.00,weatherlink.com 1.10,2013-04-22 07:35:00,
2013-04-22 00:52:00,56.2,53.0,29.99,ENE,75,0.0,7.0,89,0.00,,,0.00,weatherlink.com 1.10,2013-04-22 07:52:00,
2013-04-22 01:00:00,56.0,53.1,29.99,SE,136,2.0,7.0,90,0.00,,---,0.00,VWS V14.00,2013-04-22 08:00:00,
2013-04-22 01:06:00,56.0,53.1,29.99,SE,136,2.0,7.0,90,0.00,,---,0.00,VWS V14.00,2013-04-22 08:06:00,
2013-04-22 01:27:00,56.0,53.0,29.99,ESE,115,0.0,4.0,90,0.00,,,0.00,weatherlink.com 1.10,2013-04-22 08:27:00,
2013-04-22 01:30:00,56.0,53.1,29.98,SSE,155,2.0,7.0,90,0.00,,---,0.00,VWS V14.00,2013-04-22 08:30:00,
2013-04-22 01:36:00,56.0,53.1,29.98,SSE,155,2.0,7.0,90,0.00,,---,0.00,VWS V14.00,2013-04-22 08:36:00,
2013-04-22 01:43:00,56.0,53.0,29.98,SE,144,3.0,5.0,90,0.00,,,0.00,weatherlink.com 1.10,2013-04-22 08:43:00,
2013-04-22 02:00:00,56.0,53.1,29.98,SSE,148,2.0,6.0,90,0.00,,---,0.00,VWS V14.00,2013-04-22 09:00:00,
2013-04-22 02:01:00,55.9,53.0,29.98,SSE,164,0.0,4.0,90,0.00,,,0.00,weatherlink.com 1.10,2013-04-22 09:01:00,
2013-04-22 02:06:00,56.0,53.1,29.98,SSE,148,2.0,6.0,90,0.00,,---,0.00,VWS V14.00,2013-04-22 09:06:00,
2013-04-22 02:19:00,55.8,53.0,29.98,SE,142,1.0,7.0,90,0.00,,,0.00,weatherlink.com 1.10,2013-04-22 09:19:00,
2013-04-22 02:30:00,55.9,53.0,29.98,SSE,153,3.0,7.0,90,0.00,,---,0.00,VWS V14.00,2013-04-22 09:30:00,
2013-04-22 02:35:00,55.9,53.0,29.98,SSE,153,2.0,6.0,90,0.00,,,0.00,weatherlink.com 1.10,2013-04-22 09:35:00,
2013-04-22 02:36:00,55.9,53.0,29.98,SSE,153,3.0,7.0,90,0.00,,---,0.00,VWS V14.00,2013-04-22 09:36:00,
2013-04-22 02:53:00,55.9,53.0,29.97,ESE,118,0.0,5.0,89,0.00,,,0.00,weatherlink.com 1.10,2013-04-22 09:53:00,
2013-04-22 03:00:00,55.7,52.5,29.97,SSE,148,5.0,7.0,89,0.00,,---,0.00,VWS V14.00,2013-04-22 10:00:00,
2013-04-22 03:06:00,55.7,52.5,29.97,SSE,148,5.0,7.0,89,0.00,,---,0.00,VWS V14.00,2013-04-22 10:06:00,
2013-04-22 03:10:00,55.7,53.0,29.97,SSE,158,2.0,7.0,89,0.00,,,0.00,weatherlink.com 1.10,2013-04-22 10:10:00,
2013-04-22 03:28:00,55.9,52.0,29.97,SSE,153,6.0,6.0,88,0.00,,,0.00,weatherlink.com 1.10,2013-04-22 10:28:00,
2013-04-22 03:30:00,55.7,52.2,29.97,South,173,1.0,6.0,88,0.00,,---,0.00,VWS V14.00,2013-04-22 10:30:00,
2013-04-22 03:36:00,55.7,52.2,29.97,South,173,1.0,6.0,88,0.00,,---,0.00,VWS V14.00,2013-04-22 10:36:00,
2013-04-22 03:44:00,55.7,53.0,29.97,SSE,153,2.0,4.0,89,0.00,,,0.00,weatherlink.com 1.10,2013-04-22 10:44:00,
2013-04-22 04:00:00,55.8,52.3,29.97,SE,133,0.0,6.0,88,0.00,,---,0.00,VWS V14.00,2013-04-22 11:00:00,
2013-04-22 04:02:00,55.8,52.0,29.97,SSE,150,0.0,4.0,88,0.00,,,0.00,weatherlink.com 1.10,2013-04-22 11:02:00,
2013-04-22 04:06:00,55.8,52.3,29.97,SE,133,0.0,6.0,88,0.00,,---,0.00,VWS V14.00,2013-04-22 11:06:00,
2013-04-22 04:19:00,55.8,52.0,29.96,ESE,106,0.0,6.0,88,0.00,,,0.00,weatherlink.com 1.10,2013-04-22 11:19:00,
2013-04-22 04:30:00,55.7,52.5,29.96,SSE,160,0.0,7.0,89,0.00,,---,0.00,VWS V14.00,2013-04-22 11:30:00,
2013-04-22 04:36:00,55.7,53.0,29.96,SSE,160,0.0,6.0,89,0.00,,,0.00,weatherlink.com 1.10,2013-04-22 11:36:00,
2013-04-22 04:53:00,55.7,52.0,29.96,ESE,102,3.0,5.0,88,0.00,,,0.00,weatherlink.com 1.10,2013-04-22 11:53:00,
2013-04-22 05:00:00,55.6,52.1,29.96,ESE,119,1.0,6.0,88,0.00,,---,0.00,VWS V14.00,2013-04-22 12:00:00,
2013-04-22 05:06:00,55.6,52.1,29.96,ESE,119,1.0,6.0,88,0.00,,---,0.00,VWS V14.00,2013-04-22 12:06:00,
2013-04-22 05:11:00,55.5,52.0,29.96,SE,139,2.0,6.0,88,0.00,,,0.00,weatherlink.com 1.10,2013-04-22 12:11:00,
2013-04-22 05:28:00,55.5,52.0,29.95,ESE,104,2.0,5.0,89,0.00,,,0.00,weatherlink.com 1.10,2013-04-22 12:28:00,
2013-04-22 05:30:00,55.5,52.0,29.96,East,100,2.0,6.0,88,0.00,,---,0.00,VWS V14.00,2013-04-22 12:30:00,
2013-04-22 05:36:00,55.5,52.0,29.96,East,100,2.0,6.0,88,0.00,,---,0.00,VWS V14.00,2013-04-22 12:36:00,
2013-04-22 05:45:00,55.5,52.0,29.96,ENE,76,1.0,3.0,88,0.00,,,0.00,weatherlink.com 1.10,2013-04-22 12:45:00,
2013-04-22 06:00:00,54.8,51.6,29.96,ENE,71,2.0,5.0,89,0.00,,---,0.00,VWS V14.00,2013-04-22 13:00:00,
2013-04-22 06:03:00,55.0,52.0,29.96,East,79,0.0,4.0,89,0.00,,,0.00,weatherlink.com 1.10,2013-04-22 13:03:00,
2013-04-22 06:06:00,54.8,51.6,29.96,ENE,71,2.0,5.0,89,0.00,,---,0.00,VWS V14.00,2013-04-22 13:06:00,
2013-04-22 06:20:00,54.8,52.0,29.96,ENE,73,0.0,2.0,90,0.00,,,0.00,weatherlink.com 1.10,2013-04-22 13:20:00,
2013-04-22 06:30:00,55.0,51.8,29.97,ESE,106,2.0,3.0,89,0.00,,---,0.00,VWS V14.00,2013-04-22 13:30:00,
2013-04-22 06:36:00,55.0,51.8,29.97,ESE,106,2.0,3.0,89,0.00,,---,0.00,VWS V14.00,2013-04-22 13:36:00,
2013-04-22 06:37:00,55.0,52.0,29.97,ESE,106,0.0,3.0,89,0.00,,,0.00,weatherlink.com 1.10,2013-04-22 13:37:00,
2013-04-22 06:54:00,55.3,52.0,29.97,ESE,104,2.0,5.0,89,0.00,,,0.00,weatherlink.com 1.10,2013-04-22 13:54:00,
2013-04-22 07:00:00,55.3,52.1,29.98,SE,140,0.0,6.0,89,0.00,,---,0.00,VWS V14.00,2013-04-22 14:00:00,
2013-04-22 07:06:00,55.3,52.1,29.98,SE,140,0.0,6.0,89,0.00,,---,0.00,VWS V14.00,2013-04-22 14:06:00,
2013-04-22 07:12:00,55.3,52.0,29.98,SE,133,0.0,4.0,89,0.00,,,0.00,weatherlink.com 1.10,2013-04-22 14:12:00,
2013-04-22 07:28:00,55.5,52.0,29.98,SSE,157,0.0,8.0,89,0.00,,,0.00,weatherlink.com 1.10,2013-04-22 14:28:00,
2013-04-22 07:30:00,55.5,52.3,29.98,SSE,157,0.0,8.0,89,0.00,,---,0.00,VWS V14.00,2013-04-22 14:30:00,
2013-04-22 07:36:00,55.5,52.3,29.98,SSE,157,0.0,8.0,89,0.00,,---,0.00,VWS V14.00,2013-04-22 14:36:00,
2013-04-22 07:46:00,55.7,52.0,29.98,SE,131,2.0,5.0,88,0.00,,,0.00,weatherlink.com 1.10,2013-04-22 14:46:00,
2013-04-22 08:00:00,55.9,52.4,29.99,ESE,111,3.0,6.0,88,0.00,,---,0.00,VWS V14.00,2013-04-22 15:00:00,
2013-04-22 08:03:00,55.8,52.0,29.98,ESE,113,2.0,3.0,88,0.00,,,0.00,weatherlink.com 1.10,2013-04-22 15:03:00,
2013-04-22 08:06:00,55.9,52.4,29.99,ESE,111,3.0,6.0,88,0.00,,---,0.00,VWS V14.00,2013-04-22 15:06:00,
2013-04-22 08:20:00,56.1,53.0,29.98,ESE,109,3.0,4.0,88,0.00,,,0.00,weatherlink.com 1.10,2013-04-22 15:20:00,
2013-04-22 08:30:00,56.4,52.6,29.99,SE,132,1.0,5.0,87,0.00,,---,0.00,VWS V14.00,2013-04-22 15:30:00,
2013-04-22 08:36:00,56.4,52.6,29.99,SE,132,1.0,5.0,87,0.00,,---,0.00,VWS V14.00,2013-04-22 15:36:00,
2013-04-22 08:37:00,56.5,53.0,29.99,SE,124,0.0,5.0,87,0.00,,,0.00,weatherlink.com 1.10,2013-04-22 15:37:00,
2013-04-22 08:55:00,56.5,52.0,29.99,SE,145,3.0,8.0,86,0.00,,,0.00,weatherlink.com 1.10,2013-04-22 15:55:00,
2013-04-22 09:00:00,56.6,52.5,30.00,WSW,239,0.0,7.0,86,0.00,,---,0.00,VWS V14.00,2013-04-22 16:00:00,
2013-04-22 09:06:00,56.6,52.5,30.00,WSW,239,0.0,7.0,86,0.00,,---,0.00,VWS V14.00,2013-04-22 16:06:00,
2013-04-22 09:13:00,57.0,53.0,30.00,South,181,0.0,2.0,86,0.00,,,0.00,weatherlink.com 1.10,2013-04-22 16:13:00,
2013-04-22 09:29:00,57.7,53.0,30.00,SW,221,1.0,6.0,84,0.00,,,0.00,weatherlink.com 1.10,2013-04-22 16:29:00,
2013-04-22 09:30:00,57.3,52.8,30.00,SSW,192,3.0,6.0,85,0.00,,---,0.00,VWS V14.00,2013-04-22 16:30:00,
2013-04-22 09:36:00,57.3,52.8,30.00,SSW,192,3.0,6.0,85,0.00,,---,0.00,VWS V14.00,2013-04-22 16:36:00,
2013-04-22 09:47:00,58.1,53.0,30.00,South,181,1.0,5.0,83,0.00,,,0.00,weatherlink.com 1.10,2013-04-22 16:47:00,
2013-04-22 10:00:00,59.7,53.2,30.00,SSE,153,3.0,6.0,79,0.00,,---,0.00,VWS V14.00,2013-04-22 17:00:00,
2013-04-22 10:03:00,59.6,53.0,30.00,South,173,1.0,5.0,80,0.00,,,0.00,weatherlink.com 1.10,2013-04-22 17:03:00,
2013-04-22 10:06:00,59.7,53.2,30.00,SSE,153,3.0,6.0,79,0.00,,---,0.00,VWS V14.00,2013-04-22 17:06:00,
2013-04-22 10:21:00,59.3,53.0,30.00,SSW,198,4.0,6.0,80,0.00,,,0.00,weatherlink.com 1.10,2013-04-22 17:21:00,
2013-04-22 10:30:00,59.9,53.4,30.00,SSE,148,1.0,8.0,79,0.00,,---,0.00,VWS V14.00,2013-04-22 17:30:00,
2013-04-22 10:36:00,59.9,53.4,30.00,SSE,148,1.0,8.0,79,0.00,,---,0.00,VWS V14.00,2013-04-22 17:36:00,
2013-04-22 10:39:00,60.0,53.0,30.00,SW,217,1.0,11.0,79,0.00,,,0.00,weatherlink.com 1.10,2013-04-22 17:39:00,
2013-04-22 10:56:00,60.7,54.0,30.00,West,280,3.0,7.0,78,0.00,,,0.00,weatherlink.com 1.10,2013-04-22 17:56:00,
2013-04-22 11:00:00,59.6,53.1,30.00,SW,233,3.0,10.0,79,0.00,,---,0.00,VWS V14.00,2013-04-22 18:00:00,
2013-04-22 11:06:00,59.6,53.1,30.00,SW,233,3.0,10.0,79,0.00,,---,0.00,VWS V14.00,2013-04-22 18:06:00,
2013-04-22 11:13:00,59.3,53.0,30.00,WSW,254,8.0,9.0,80,0.00,,,0.00,weatherlink.com 1.10,2013-04-22 18:13:00,
2013-04-22 11:30:00,60.3,53.0,29.99,South,184,1.0,8.0,78,0.00,,,0.00,weatherlink.com 1.10,2013-04-22 18:30:00,
2013-04-22 11:36:00,61.4,53.8,29.98,SSE,150,2.0,9.0,76,0.00,,---,0.00,VWS V14.00,2013-04-22 18:36:00,
2013-04-22 11:48:00,60.9,54.0,29.98,South,182,4.0,8.0,77,0.00,,,0.00,weatherlink.com 1.10,2013-04-22 18:48:00,
2013-04-22 12:00:00,60.9,53.7,29.98,WSW,238,5.0,11.0,77,0.00,,---,0.00,VWS V14.00,2013-04-22 19:00:00,
2013-04-22 12:06:00,60.9,53.0,29.98,WSW,253,8.0,11.0,76,0.00,,,0.00,weatherlink.com 1.10,2013-04-22 19:06:00,
2013-04-22 12:22:00,60.8,54.0,29.97,WSW,242,7.0,9.0,78,0.00,,,0.00,weatherlink.com 1.10,2013-04-22 19:22:00,
2013-04-22 12:30:00,60.4,53.2,29.97,WSW,251,6.0,10.0,77,0.00,,---,0.00,VWS V14.00,2013-04-22 19:30:00,
2013-04-22 12:36:00,60.4,53.2,29.97,WSW,251,6.0,10.0,77,0.00,,---,0.00,VWS V14.00,2013-04-22 19:36:00,
2013-04-22 12:40:00,60.5,53.0,29.96,SW,230,5.0,10.0,77,0.00,,,0.00,weatherlink.com 1.10,2013-04-22 19:40:00,
2013-04-22 12:58:00,60.7,53.0,29.96,SW,223,8.0,11.0,77,0.00,,,0.00,weatherlink.com 1.10,2013-04-22 19:58:00,
2013-04-22 13:00:00,60.5,53.3,29.95,WSW,243,7.0,11.0,77,0.00,,---,0.00,VWS V14.00,2013-04-22 20:00:00,
2013-04-22 13:06:00,60.5,53.3,29.95,WSW,243,7.0,11.0,77,0.00,,---,0.00,VWS V14.00,2013-04-22 20:06:00,
2013-04-22 13:14:00,60.5,54.0,29.95,West,259,7.0,9.0,78,0.00,,,0.00,weatherlink.com 1.10,2013-04-22 20:14:00,
2013-04-22 13:30:00,59.5,53.0,29.95,WSW,238,9.0,13.0,79,0.00,,---,0.00,VWS V14.00,2013-04-22 20:30:00,
2013-04-22 13:32:00,60.1,53.0,29.95,WSW,254,13.0,13.0,78,0.00,,,0.00,weatherlink.com 1.10,2013-04-22 20:32:00,
2013-04-22 13:36:00,59.5,53.0,29.95,WSW,238,9.0,13.0,79,0.00,,---,0.00,VWS V14.00,2013-04-22 20:36:00,
2013-04-22 13:49:00,60.7,54.0,29.95,SSW,205,2.0,12.0,78,0.00,,,0.00,weatherlink.com 1.10,2013-04-22 20:49:00,
2013-04-22 14:00:00,60.3,53.4,29.94,SSW,208,4.0,14.0,78,0.00,,---,0.00,VWS V14.00,2013-04-22 21:00:00,
2013-04-22 14:06:00,60.3,53.4,29.94,SSW,208,4.0,14.0,78,0.00,,---,0.00,VWS V14.00,2013-04-22 21:06:00,
2013-04-22 14:24:00,60.3,54.0,29.94,WSW,254,5.0,13.0,79,0.00,,,0.00,weatherlink.com 1.10,2013-04-22 21:24:00,
2013-04-22 14:30:00,59.8,53.3,29.94,West,263,6.0,13.0,79,0.00,,---,0.00,VWS V14.00,2013-04-22 21:30:00,
2013-04-22 14:36:00,59.8,53.3,29.94,West,263,6.0,13.0,79,0.00,,---,0.00,VWS V14.00,2013-04-22 21:36:00,
2013-04-22 14:41:00,60.4,54.0,29.94,WNW,282,9.0,12.0,78,0.00,,,0.00,weatherlink.com 1.10,2013-04-22 21:41:00,
2013-04-22 14:58:00,60.9,53.0,29.94,SSE,167,6.0,10.0,76,0.00,,,0.00,weatherlink.com 1.10,2013-04-22 21:58:00,
2013-04-22 15:00:00,61.1,53.8,29.93,SE,130,3.0,13.0,77,0.00,,---,0.00,VWS V14.00,2013-04-22 22:00:00,
2013-04-22 15:06:00,61.1,53.8,29.93,SE,130,3.0,13.0,77,0.00,,---,0.00,VWS V14.00,2013-04-22 22:06:00,
2013-04-22 15:16:00,60.1,54.0,29.93,WSW,254,9.0,11.0,79,0.00,,,0.00,weatherlink.com 1.10,2013-04-22 22:16:00,
2013-04-22 15:30:00,60.0,53.5,29.92,SSW,211,4.0,14.0,79,0.00,,---,0.00,VWS V14.00,2013-04-22 22:30:00,
2013-04-22 15:33:00,60.0,53.0,29.92,West,267,6.0,14.0,79,0.00,,,0.00,weatherlink.com 1.10,2013-04-22 22:33:00,
2013-04-22 15:36:00,60.0,53.5,29.92,SSW,211,4.0,14.0,79,0.00,,---,0.00,VWS V14.00,2013-04-22 22:36:00,
2013-04-22 15:50:00,61.0,53.0,29.92,South,169,6.0,11.0,76,0.00,,,0.00,weatherlink.com 1.10,2013-04-22 22:50:00,
2013-04-22 16:00:00,60.5,53.6,29.92,SSW,208,5.0,12.0,78,0.00,,---,0.00,VWS V14.00,2013-04-22 23:00:00,
2013-04-22 16:06:00,60.5,53.6,29.92,SSW,208,5.0,12.0,78,0.00,,---,0.00,VWS V14.00,2013-04-22 23:06:00,
2013-04-22 16:08:00,60.4,54.0,29.92,SSW,200,3.0,12.0,78,0.00,,,0.00,weatherlink.com 1.10,2013-04-22 23:08:00,
2013-04-22 16:24:00,59.5,53.0,29.92,SSW,194,8.0,9.0,80,0.00,,,0.00,weatherlink.com 1.10,2013-04-22 23:24:00,
2013-04-22 16:30:00,58.7,52.9,29.92,SW,228,2.0,13.0,81,0.00,,---,0.00,VWS V14.00,2013-04-22 23:30:00,
2013-04-22 16:36:00,58.7,52.9,29.92,SW,228,2.0,13.0,81,0.00,,---,0.00,VWS V14.00,2013-04-22 23:36:00,
2013-04-22 16:42:00,59.0,53.0,29.92,South,190,7.0,12.0,80,0.00,,,0.00,weatherlink.com 1.10,2013-04-22 23:42:00,
2013-04-22 17:00:00,58.5,53.0,29.92,WSW,244,0.0,11.0,81,0.00,,,0.00,weatherlink.com 1.10,2013-04-23 00:00:00,
2013-04-22 17:06:00,58.7,52.9,29.92,SSW,194,6.0,12.0,81,0.00,,---,0.00,VWS V14.00,2013-04-23 00:06:00,
2013-04-22 17:17:00,58.5,53.0,29.92,SSW,194,7.0,9.0,82,0.00,,,0.00,weatherlink.com 1.10,2013-04-23 00:17:00,
2013-04-22 17:30:00,58.3,52.8,29.92,South,180,7.0,9.0,82,0.00,,---,0.00,VWS V14.00,2013-04-23 00:30:00,
2013-04-22 17:34:00,58.4,53.0,29.92,SSW,194,1.0,8.0,82,0.00,,,0.00,weatherlink.com 1.10,2013-04-23 00:34:00,
2013-04-22 17:52:00,58.2,53.0,29.91,South,169,5.0,9.0,82,0.00,,,0.00,weatherlink.com 1.10,2013-04-23 00:52:00,
2013-04-22 18:00:00,57.8,52.7,29.91,SSE,155,4.0,9.0,83,0.00,,---,0.00,VWS V14.00,2013-04-23 01:00:00,
2013-04-22 18:06:00,57.8,52.7,29.91,SSE,155,4.0,9.0,83,0.00,,---,0.00,VWS V14.00,2013-04-23 01:06:00,
2013-04-22 18:26:00,57.4,52.0,29.91,South,183,2.0,8.0,83,0.00,,,0.00,weatherlink.com 1.10,2013-04-23 01:26:00,
2013-04-22 18:30:00,57.1,52.0,29.91,SSW,203,6.0,11.0,83,0.00,,---,0.00,VWS V14.00,2013-04-23 01:30:00,
2013-04-22 18:36:00,57.1,52.0,29.91,SSW,203,6.0,11.0,83,0.00,,---,0.00,VWS V14.00,2013-04-23 01:36:00,
2013-04-22 18:44:00,57.0,52.0,29.91,SSW,199,4.0,7.0,83,0.00,,,0.00,weatherlink.com 1.10,2013-04-23 01:44:00,
2013-04-22 19:00:00,56.8,52.0,29.91,South,186,2.0,10.0,84,0.00,,,0.00,weatherlink.com 1.10,2013-04-23 02:00:00,
2013-04-22 19:06:00,56.9,52.1,29.91,SSW,200,3.0,10.0,84,0.00,,---,0.00,VWS V14.00,2013-04-23 02:06:00,
2013-04-22 19:18:00,57.0,52.0,29.91,SE,145,3.0,6.0,84,0.00,,,0.00,weatherlink.com 1.10,2013-04-23 02:18:00,
2013-04-22 19:30:00,56.7,51.9,29.91,SW,225,4.0,9.0,84,0.00,,---,0.00,VWS V14.00,2013-04-23 02:30:00,
2013-04-22 19:36:00,56.8,52.0,29.91,South,186,3.0,9.0,84,0.00,,,0.00,weatherlink.com 1.10,2013-04-23 02:36:00,
2013-04-22 19:52:00,56.5,52.0,29.91,SSE,155,5.0,6.0,84,0.00,,,0.00,weatherlink.com 1.10,2013-04-23 02:52:00,
2013-04-22 20:00:00,56.6,51.8,29.92,SSE,153,1.0,6.0,84,0.00,,---,0.00,VWS V14.00,2013-04-23 03:00:00,
2013-04-22 20:06:00,56.6,51.8,29.92,SSE,153,1.0,6.0,84,0.00,,---,0.00,VWS V14.00,2013-04-23 03:06:00,
2013-04-22 20:27:00,56.4,52.0,29.92,SSE,155,1.0,11.0,84,0.00,,,0.00,weatherlink.com 1.10,2013-04-23 03:27:00,
2013-04-22 20:30:00,56.5,51.7,29.92,SE,143,4.0,11.0,84,0.00,,---,0.00,VWS V14.00,2013-04-23 03:30:00,
2013-04-22 20:36:00,56.5,51.7,29.92,SE,143,4.0,11.0,84,0.00,,---,0.00,VWS V14.00,2013-04-23 03:36:00,
2013-04-22 20:45:00,56.4,52.0,29.92,SSE,153,5.0,9.0,84,0.00,,,0.00,weatherlink.com 1.10,2013-04-23 03:45:00,
2013-04-22 21:00:00,56.4,51.6,29.94,SE,146,2.0,8.0,84,0.00,,---,0.00,VWS V14.00,2013-04-23 04:00:00,
2013-04-22 21:01:00,56.4,52.0,29.94,ESE,106,4.0,8.0,84,0.00,,,0.00,weatherlink.com 1.10,2013-04-23 04:01:00,
2013-04-22 21:06:00,56.4,51.6,29.94,SE,146,2.0,8.0,84,0.00,,---,0.00,VWS V14.00,2013-04-23 04:06:00,
2013-04-22 21:19:00,56.4,52.0,29.94,SSE,160,4.0,5.0,84,0.00,,,0.00,weatherlink.com 1.10,2013-04-23 04:19:00,
2013-04-22 21:30:00,56.5,51.4,29.94,ESE,119,3.0,7.0,83,0.00,,---,0.00,VWS V14.00,2013-04-23 04:30:00,
2013-04-22 21:36:00,56.5,51.4,29.94,ESE,119,3.0,7.0,83,0.00,,---,0.00,VWS V14.00,2013-04-23 04:36:00,
2013-04-22 21:37:00,56.4,51.0,29.94,ESE,123,5.0,7.0,83,0.00,,,0.00,weatherlink.com 1.10,2013-04-23 04:37:00,
2013-04-22 21:53:00,56.1,51.0,29.95,SSE,163,2.0,9.0,83,0.00,,,0.00,weatherlink.com 1.10,2013-04-23 04:53:00,
2013-04-22 22:00:00,56.0,51.2,29.94,SSW,202,0.0,9.0,84,0.00,,---,0.00,VWS V14.00,2013-04-23 05:00:00,
2013-04-22 22:06:00,56.0,51.2,29.94,SSW,202,0.0,9.0,84,0.00,,---,0.00,VWS V14.00,2013-04-23 05:06:00,
2013-04-22 22:11:00,56.0,51.0,29.94,SSE,148,3.0,5.0,84,0.00,,,0.00,weatherlink.com 1.10,2013-04-23 05:11:00,
2013-04-22 22:28:00,56.1,51.0,29.94,East,101,1.0,5.0,83,0.00,,,0.00,weatherlink.com 1.10,2013-04-23 05:28:00,
2013-04-22 22:30:00,56.1,51.3,29.94,SSE,153,3.0,8.0,84,0.00,,---,0.00,VWS V14.00,2013-04-23 05:30:00,
2013-04-22 22:36:00,56.1,51.3,29.94,SSE,153,3.0,8.0,84,0.00,,---,0.00,VWS V14.00,2013-04-23 05:36:00,
2013-04-22 22:45:00,56.2,52.0,29.94,ESE,118,3.0,5.0,84,0.00,,,0.00,weatherlink.com 1.10,2013-04-23 05:45:00,
2013-04-22 23:00:00,56.2,51.4,29.94,SE,146,7.0,8.0,84,0.00,,---,0.00,VWS V14.00,2013-04-23 06:00:00,
2013-04-22 23:02:00,56.2,52.0,29.94,East,80,3.0,7.0,84,0.00,,,0.00,weatherlink.com 1.10,2013-04-23 06:02:00,
2013-04-22 23:20:00,55.8,51.0,29.94,SE,128,1.0,6.0,85,0.00,,,0.00,weatherlink.com 1.10,2013-04-23 06:20:00,
2013-04-22 23:30:00,56.2,51.8,29.93,SE,130,2.0,11.0,85,0.00,,---,0.00,VWS V14.00,2013-04-23 06:30:00,
2013-04-22 23:36:00,56.2,51.8,29.93,SE,130,2.0,11.0,85,0.00,,---,0.00,VWS V14.00,2013-04-23 06:36:00,
2013-04-22 23:37:00,56.2,52.0,29.93,SE,144,0.0,8.0,85,0.00,,,0.00,weatherlink.com 1.10,2013-04-23 06:37:00,
2013-04-22 23:54:00,56.2,52.0,29.94,SE,139,1.0,9.0,84,0.00,,,0.00,weatherlink.com 1.10,2013-04-23 06:54:00,